User: anonymous   Login
Location: Dogstar Observatory
(35.3981°N, 83.1078°W)
Time: 22:18:22
(UTC-04:00)
Language:

ISS - Orbit

View from above orbital plane
View from above orbital plane
View from above satellite
View from above satellite

Ground track
Ground track

The orbit data is extracted from the following two-line orbital elements,

1 25544U 98067A   22229.84531448  .00005576  00000-0  10482-3 0  9995
2 25544  51.6430  31.1298 0005525 133.1079   8.5802 15.50214236354741
Epoch (UTC): 17 August 2022 20:17:15
Eccentricity: 0.0005525
inclination: 51.6430°
perigee height: 412 km
apogee height: 420 km
right ascension of ascending node: 31.1298°
argument of perigee: 133.1079°
revolutions per day: 15.50214236
mean anomaly at epoch: 8.5802°
orbit number at epoch: 35474

The dashed part of the orbit path shows where the satellite is in the earth's shadow,  

DLR